Location: Ch�tillon
(48.8024°N, 2.2935°E)
Time: 14:56:57
(UTC+00:00)

CAS-4A - Pass Details

Date: 11 July 2022
Orbit: 521 x 536 km, 43.0° (Epoch: 19 August)

Event Time Altitude Azimuth Distance (km) Brightness Sun altitude
Rises 21:57:38 0° 233° (SW) 2,637 ? -14.4°
Reaches altitude 10° 22:00:05 10° 220° (SW) 1,750 ? -14.6°
Enters shadow 22:02:57 25° 176° (S) 1,066 ? -14.8°
